NOZ2GX ENGM-ENDU

Flight info

Callsign NOZ2GX
Flight time 1h 25m
Altitude 37000
Route RIBBE DCT GIGNI DCT SOMUB Z101 GUBAV DCT PENNO DCT XAPAN
Aircraft B38M/M-SDE2E3GIJ1LRWXY/LB2

Departure

Time 2026-04-12 10:24
Airport Oslo-Gardermoen International Airport (ENGM)

Arrival

Time 2026-04-12 11:50
Airport Bardufoss Airport (ENDU)
Time Latitude Longitude Altitude Speed Heading
2026-04-12 09:26 60.19671 11.09972 689 ft 0 kts 105°
2026-04-12 10:13 60.19673 11.09962 687 ft 2 kts 104°
2026-04-12 10:14 60.19676 11.09933 687 ft 2 kts 104°
2026-04-12 10:14 60.19680 11.09904 687 ft 2 kts 104°
2026-04-12 10:14 60.19682 11.09887 687 ft 0 kts 105°
2026-04-12 10:17 60.19681 11.09891 687 ft 1 kts 113°
2026-04-12 10:17 60.19674 11.09890 687 ft 1 kts 234°
2026-04-12 10:17 60.19691 11.09827 687 ft 9 kts 295°
2026-04-12 10:18 60.19719 11.09661 687 ft 15 kts 287°
2026-04-12 10:18 60.19750 11.09444 687 ft 16 kts 286°
2026-04-12 10:18 60.19782 11.09224 687 ft 17 kts 286°
2026-04-12 10:18 60.19817 11.08979 687 ft 17 kts 286°
2026-04-12 10:19 60.19848 11.08771 687 ft 13 kts 297°
2026-04-12 10:19 60.19923 11.08757 687 ft 13 kts 15°
2026-04-12 10:19 60.20039 11.08826 687 ft 21 kts 16°
2026-04-12 10:19 60.20183 11.08907 687 ft 20 kts 15°
2026-04-12 10:20 60.20319 11.08987 687 ft 19 kts 16°
2026-04-12 10:20 60.20464 11.09070 687 ft 24 kts 16°
2026-04-12 10:20 60.20626 11.09161 687 ft 23 kts 15°
2026-04-12 10:20 60.20780 11.09251 687 ft 22 kts 15°
2026-04-12 10:21 60.20927 11.09337 687 ft 21 kts 15°
2026-04-12 10:21 60.21069 11.09419 687 ft 21 kts 16°
2026-04-12 10:21 60.21219 11.09505 687 ft 22 kts 17°
2026-04-12 10:21 60.21368 11.09593 687 ft 21 kts 16°
2026-04-12 10:22 60.21492 11.09632 686 ft 14 kts 343°
2026-04-12 10:22 60.21550 11.09485 687 ft 13 kts 286°
2026-04-12 10:22 60.21574 11.09312 687 ft 12 kts 284°
2026-04-12 10:22 60.21560 11.09153 687 ft 12 kts 225°
2026-04-12 10:23 60.21466 11.09085 687 ft 18 kts 195°
2026-04-12 10:23 60.21185 11.08927 687 ft 72 kts 195°
2026-04-12 10:23 60.20519 11.08539 687 ft 124 kts 196°
2026-04-12 10:23 60.19559 11.07984 697 ft 163 kts 194°
2026-04-12 10:24 60.18418 11.07282 942 ft 181 kts 196°
2026-04-12 10:24 60.17202 11.06437 1499 ft 188 kts 201°
2026-04-12 10:24 60.16192 11.04978 2269 ft 179 kts 234°
2026-04-12 10:24 60.15683 11.02737 2768 ft 182 kts 248°
2026-04-12 10:25 60.15237 11.00352 3273 ft 184 kts 245°
2026-04-12 10:25 60.14735 10.98011 3770 ft 185 kts 244°
2026-04-12 10:25 60.14255 10.95605 4194 ft 191 kts 253°
2026-04-12 10:25 60.14227 10.92838 4458 ft 208 kts 279°
2026-04-12 10:26 60.14750 10.90003 4746 ft 230 kts 304°
2026-04-12 10:26 60.16030 10.87972 5118 ft 248 kts 341°
2026-04-12 10:26 60.17765 10.87738 5453 ft 263 kts 17°
2026-04-12 10:26 60.19480 10.89257 5879 ft 275 kts 35°
2026-04-12 10:27 60.21085 10.91372 6449 ft 283 kts 38°
2026-04-12 10:27 60.22671 10.93556 7133 ft 288 kts 38°
2026-04-12 10:27 60.24347 10.95836 7853 ft 292 kts 37°
2026-04-12 10:27 60.26053 10.98092 8569 ft 297 kts 37°
2026-04-12 10:28 60.27785 11.00369 9270 ft 301 kts 37°
2026-04-12 10:28 60.29538 11.02669 9946 ft 305 kts 37°
2026-04-12 10:28 60.31343 11.05035 10522 ft 314 kts 37°
2026-04-12 10:28 60.33197 11.07467 10858 ft 330 kts 37°
2026-04-12 10:29 60.35181 11.10081 11171 ft 346 kts 37°
2026-04-12 10:29 60.37216 11.12769 11677 ft 355 kts 37°
2026-04-12 10:29 60.39291 11.15504 12296 ft 359 kts 37°
2026-04-12 10:29 60.41394 11.18265 12892 ft 364 kts 38°
2026-04-12 10:30 60.43541 11.21068 13485 ft 369 kts 36°
2026-04-12 10:30 60.45821 11.23505 14043 ft 378 kts 28°
2026-04-12 10:30 60.48296 11.25508 14606 ft 385 kts 24°
2026-04-12 10:30 60.50837 11.27231 15249 ft 389 kts 19°
2026-04-12 10:31 60.53478 11.28324 15860 ft 394 kts 10°
2026-04-12 10:31 60.56221 11.28851 16457 ft 398 kts
2026-04-12 10:31 60.58962 11.29116 17042 ft 400 kts
2026-04-12 10:31 60.61762 11.29320 17634 ft 402 kts
2026-04-12 10:32 60.64527 11.29544 18204 ft 403 kts
2026-04-12 10:32 60.67336 11.29822 18758 ft 405 kts
2026-04-12 10:32 60.70130 11.30144 19301 ft 406 kts
2026-04-12 10:32 60.72934 11.30500 19808 ft 409 kts
2026-04-12 10:33 60.75299 11.30816 20228 ft 410 kts
2026-04-12 10:33 60.78252 11.31219 20726 ft 413 kts
2026-04-12 10:33 60.81142 11.31618 21196 ft 415 kts
2026-04-12 10:33 60.84031 11.32018 21633 ft 418 kts
2026-04-12 10:34 60.86916 11.32417 22068 ft 420 kts
2026-04-12 10:34 60.89843 11.32822 22504 ft 423 kts
2026-04-12 10:34 60.92745 11.33224 22932 ft 426 kts
2026-04-12 10:34 60.95707 11.33634 23361 ft 428 kts
2026-04-12 10:35 60.98704 11.34049 23589 ft 438 kts
2026-04-12 10:35 61.01759 11.34473 23907 ft 443 kts
2026-04-12 10:35 61.04812 11.34897 24303 ft 445 kts
2026-04-12 10:35 61.07896 11.35325 24680 ft 448 kts
2026-04-12 10:36 61.10998 11.35757 25045 ft 450 kts
2026-04-12 10:36 61.14149 11.36196 25405 ft 452 kts
2026-04-12 10:36 61.17291 11.36635 25764 ft 455 kts
2026-04-12 10:36 61.20418 11.37073 26225 ft 454 kts
2026-04-12 10:37 61.23596 11.37518 26540 ft 458 kts
2026-04-12 10:37 61.26723 11.37958 26919 ft 460 kts
2026-04-12 10:37 61.29947 11.38413 27295 ft 462 kts
2026-04-12 10:37 61.33130 11.38862 27657 ft 464 kts
2026-04-12 10:38 61.36338 11.39316 28015 ft 465 kts
2026-04-12 10:38 61.39548 11.39771 28530 ft 462 kts
2026-04-12 10:38 61.42706 11.40218 28910 ft 462 kts
2026-04-12 10:38 61.45857 11.40665 29369 ft 460 kts
2026-04-12 10:39 61.48872 11.41095 29802 ft 459 kts
2026-04-12 10:39 61.52042 11.41549 30298 ft 457 kts
2026-04-12 10:39 61.55195 11.42001 30787 ft 455 kts
2026-04-12 10:39 61.58328 11.42451 31264 ft 453 kts
2026-04-12 10:40 61.61418 11.42896 31731 ft 451 kts
2026-04-12 10:40 61.64568 11.43350 32203 ft 449 kts
2026-04-12 10:40 61.67643 11.43794 32640 ft 448 kts
2026-04-12 10:40 61.70766 11.44246 32968 ft 448 kts
2026-04-12 10:41 61.73831 11.44691 33290 ft 447 kts
2026-04-12 10:41 61.76946 11.45144 33612 ft 447 kts
2026-04-12 10:41 61.80010 11.45591 33919 ft 447 kts
2026-04-12 10:41 61.83109 11.46043 34208 ft 446 kts
2026-04-12 10:42 61.86186 11.46493 34473 ft 447 kts
2026-04-12 10:42 61.89262 11.46944 34736 ft 447 kts
2026-04-12 10:42 61.92355 11.47399 34997 ft 447 kts
2026-04-12 10:42 61.95481 11.47859 35111 ft 450 kts
2026-04-12 10:43 62.01737 11.48812 35136 ft 460 kts
2026-04-12 10:43 62.08089 11.50147 35094 ft 457 kts
2026-04-12 10:44 62.14335 11.51638 35078 ft 456 kts
2026-04-12 10:44 62.20658 11.53156 35057 ft 456 kts
2026-04-12 10:45 62.26942 11.54643 35018 ft 456 kts
2026-04-12 10:45 62.33208 11.56111 35055 ft 456 kts
2026-04-12 10:46 62.39533 11.57586 35062 ft 456 kts
2026-04-12 10:46 62.45762 11.59038 35065 ft 455 kts
2026-04-12 10:47 62.52028 11.60505 35068 ft 455 kts
2026-04-12 10:47 62.58320 11.61984 35066 ft 456 kts
2026-04-12 10:48 62.64581 11.63464 35065 ft 456 kts
2026-04-12 10:48 62.70886 11.64955 35063 ft 456 kts
2026-04-12 10:49 62.77146 11.66442 35062 ft 455 kts
2026-04-12 10:49 62.83406 11.67938 35065 ft 455 kts
2026-04-12 10:50 62.89668 11.69440 35072 ft 452 kts
2026-04-12 10:50 62.95897 11.70943 35080 ft 455 kts
2026-04-12 10:51 63.02144 11.72458 35085 ft 455 kts
2026-04-12 10:51 63.08389 11.73975 35091 ft 455 kts
2026-04-12 10:52 63.14614 11.75493 35097 ft 454 kts
2026-04-12 10:52 63.20876 11.77027 35103 ft 454 kts
2026-04-12 10:53 63.27079 11.78555 35109 ft 453 kts
2026-04-12 10:53 63.33277 11.80353 35112 ft 452 kts 12°
2026-04-12 10:54 63.39364 11.83813 35118 ft 451 kts 20°
2026-04-12 10:54 63.45250 11.88433 35085 ft 450 kts 22°
2026-04-12 10:55 63.51127 11.93332 34924 ft 449 kts 22°
2026-04-12 10:55 63.56989 11.98226 34805 ft 447 kts 22°
2026-04-12 10:56 63.62838 12.03078 34874 ft 449 kts 21°
2026-04-12 10:56 63.68692 12.07920 34997 ft 450 kts 21°
2026-04-12 10:57 63.74546 12.12762 35057 ft 448 kts 21°
2026-04-12 10:57 63.80364 12.17586 35067 ft 447 kts 21°
2026-04-12 10:58 63.86194 12.22440 35060 ft 447 kts 21°
2026-04-12 10:58 63.92049 12.27334 35021 ft 447 kts 21°
2026-04-12 10:59 63.97858 12.32210 34971 ft 448 kts 21°
2026-04-12 10:59 64.03683 12.37123 34951 ft 446 kts 21°
2026-04-12 11:00 64.09498 12.42051 35061 ft 448 kts 21°
2026-04-12 11:00 64.15313 12.47002 35120 ft 451 kts 21°
2026-04-12 11:01 64.21254 12.52086 35114 ft 462 kts 21°
2026-04-12 11:01 64.27325 12.57303 35103 ft 467 kts 21°
2026-04-12 11:02 64.33369 12.62519 35096 ft 466 kts 21°
2026-04-12 11:02 64.39381 12.67730 35091 ft 467 kts 22°
2026-04-12 11:03 64.45450 12.73016 35089 ft 468 kts 22°
2026-04-12 11:03 64.51523 12.78332 35092 ft 469 kts 22°
2026-04-12 11:04 64.57597 12.83676 35099 ft 470 kts 22°
2026-04-12 11:04 64.63707 12.89077 35102 ft 471 kts 23°
2026-04-12 11:05 64.69806 12.94493 35093 ft 472 kts 23°
2026-04-12 11:05 64.75919 12.99947 35096 ft 473 kts 23°
2026-04-12 11:06 64.82066 13.05460 35117 ft 474 kts 23°
2026-04-12 11:06 64.88193 13.10980 35135 ft 475 kts 23°
2026-04-12 11:07 64.94342 13.16546 35141 ft 475 kts 23°
2026-04-12 11:07 65.00453 13.22106 35145 ft 476 kts 23°
2026-04-12 11:08 65.06530 13.27663 35142 ft 477 kts 23°
2026-04-12 11:08 65.12676 13.33310 35127 ft 480 kts 24°
2026-04-12 11:09 65.18899 13.39058 35095 ft 483 kts 24°
2026-04-12 11:09 65.25177 13.44883 34935 ft 484 kts 24°
2026-04-12 11:10 65.31371 13.50659 34829 ft 483 kts 24°
2026-04-12 11:10 65.37573 13.56473 34899 ft 485 kts 24°
2026-04-12 11:11 65.40774 13.59487 34963 ft 486 kts 24°
2026-04-12 11:11 65.46325 13.64735 35078 ft 488 kts 24°
2026-04-12 11:12 65.51352 13.69504 35136 ft 489 kts 25°
2026-04-12 11:12 65.57660 13.75513 35136 ft 489 kts 25°
2026-04-12 11:13 65.63963 13.81549 35119 ft 490 kts 25°
2026-04-12 11:13 65.70298 13.87647 35128 ft 491 kts 26°
2026-04-12 11:14 65.76628 13.93775 35152 ft 492 kts 26°
2026-04-12 11:14 65.82992 13.99792 35154 ft 494 kts 25°
2026-04-12 11:15 65.89385 14.05612 34940 ft 497 kts 24°
2026-04-12 11:15 65.92618 14.08541 34698 ft 498 kts 24°
2026-04-12 11:15 65.95821 14.11454 34407 ft 497 kts 24°
2026-04-12 11:16 65.99040 14.14393 34177 ft 493 kts 24°
2026-04-12 11:16 66.02241 14.17332 34065 ft 493 kts 25°
2026-04-12 11:16 66.08642 14.23260 34086 ft 498 kts 25°
2026-04-12 11:17 66.15120 14.29308 34285 ft 497 kts 25°
2026-04-12 11:17 66.18315 14.32300 34552 ft 493 kts 25°
2026-04-12 11:17 66.21522 14.35311 34811 ft 490 kts 25°
2026-04-12 11:18 66.24686 14.38292 35033 ft 489 kts 25°
2026-04-12 11:18 66.27843 14.41279 35137 ft 492 kts 25°
2026-04-12 11:18 66.34275 14.47401 35101 ft 498 kts 24°
2026-04-12 11:19 66.40695 14.53528 34933 ft 494 kts 24°
2026-04-12 11:19 66.47070 14.59646 34819 ft 495 kts 24°
2026-04-12 11:20 66.53460 14.65818 34686 ft 495 kts 25°
2026-04-12 11:20 66.59852 14.72022 34606 ft 495 kts 25°
2026-04-12 11:21 66.66277 14.78296 34549 ft 495 kts 25°
2026-04-12 11:21 66.72659 14.84559 34627 ft 496 kts 25°
2026-04-12 11:22 66.79027 14.90845 34784 ft 494 kts 25°
2026-04-12 11:22 66.82241 14.94030 34908 ft 495 kts 25°
2026-04-12 11:22 66.85427 14.97198 34984 ft 496 kts 25°
2026-04-12 11:23 66.91808 15.03568 35034 ft 495 kts 25°
2026-04-12 11:23 66.98193 15.09973 35087 ft 493 kts 25°
2026-04-12 11:24 67.04529 15.16367 35161 ft 493 kts 25°
2026-04-12 11:24 67.10893 15.22826 35178 ft 493 kts 24°
2026-04-12 11:25 67.17235 15.29301 35192 ft 493 kts 24°
2026-04-12 11:25 67.23596 15.35831 35200 ft 492 kts 24°
2026-04-12 11:26 67.29894 15.42332 35199 ft 492 kts 24°
2026-04-12 11:26 67.36209 15.48889 35198 ft 492 kts 24°
2026-04-12 11:27 67.42534 15.55493 35188 ft 492 kts 24°
2026-04-12 11:27 67.48852 15.62128 35170 ft 492 kts 24°
2026-04-12 11:28 67.55087 15.68710 35154 ft 491 kts 25°
2026-04-12 11:28 67.61390 15.75404 35152 ft 491 kts 25°
2026-04-12 11:29 67.67725 15.82171 35151 ft 491 kts 25°
2026-04-12 11:29 67.73987 15.88897 35053 ft 487 kts 24°
2026-04-12 11:30 67.77120 15.92275 34689 ft 483 kts 24°
2026-04-12 11:30 67.80204 15.95610 34122 ft 483 kts 24°
2026-04-12 11:30 67.83289 15.98957 33444 ft 486 kts 24°
2026-04-12 11:30 67.86390 16.02336 32703 ft 490 kts 24°
2026-04-12 11:31 67.89536 16.05768 31787 ft 494 kts 24°
2026-04-12 11:31 67.92665 16.09430 30991 ft 492 kts 27°
2026-04-12 11:31 67.95674 16.13491 30135 ft 494 kts 30°
2026-04-12 11:31 67.98648 16.17932 29177 ft 497 kts 32°
2026-04-12 11:32 68.01617 16.22628 28116 ft 499 kts 33°
2026-04-12 11:32 68.04539 16.27389 27259 ft 495 kts 33°
2026-04-12 11:32 68.07428 16.32151 26580 ft 486 kts 33°
2026-04-12 11:32 68.10255 16.36833 25904 ft 478 kts 33°
2026-04-12 11:33 68.13042 16.41409 25202 ft 471 kts 32°
2026-04-12 11:33 68.15878 16.45745 24458 ft 467 kts 30°
2026-04-12 11:33 68.18680 16.49782 23772 ft 463 kts 29°
2026-04-12 11:33 68.21519 16.53759 22963 ft 459 kts 29°
2026-04-12 11:34 68.24303 16.57627 22267 ft 452 kts 28°
2026-04-12 11:34 68.27094 16.61512 21676 ft 443 kts 28°
2026-04-12 11:34 68.29758 16.65244 21084 ft 437 kts 30°
2026-04-12 11:34 68.32451 16.69047 20459 ft 431 kts 30°
2026-04-12 11:35 68.35051 16.72745 19793 ft 426 kts 30°
2026-04-12 11:35 68.37666 16.76492 19129 ft 420 kts 30°
2026-04-12 11:35 68.40194 16.80134 18488 ft 414 kts 30°
2026-04-12 11:35 68.42725 16.83800 17846 ft 408 kts 30°
2026-04-12 11:36 68.45194 16.87389 17270 ft 402 kts 30°
2026-04-12 11:36 68.47636 16.90950 16680 ft 397 kts 30°
2026-04-12 11:36 68.50031 16.94453 16078 ft 393 kts 30°
2026-04-12 11:36 68.52434 16.97977 15468 ft 389 kts 29°
2026-04-12 11:37 68.54765 17.01405 14866 ft 384 kts 29°
2026-04-12 11:37 68.57091 17.04840 14269 ft 380 kts 29°
2026-04-12 11:37 68.59409 17.08277 13665 ft 376 kts 29°
2026-04-12 11:37 68.61677 17.11635 13080 ft 372 kts 28°
2026-04-12 11:38 68.63934 17.14989 12512 ft 369 kts 28°
2026-04-12 11:38 68.66190 17.18344 11932 ft 367 kts 28°
2026-04-12 11:38 68.68395 17.21622 11384 ft 364 kts 28°
2026-04-12 11:38 68.70589 17.24893 11030 ft 355 kts 28°
2026-04-12 11:39 68.72739 17.28114 10797 ft 342 kts 28°
2026-04-12 11:39 68.74785 17.31190 10394 ft 336 kts 28°
2026-04-12 11:39 68.76834 17.34271 9781 ft 336 kts 28°
2026-04-12 11:39 68.78854 17.37307 9307 ft 334 kts 28°
2026-04-12 11:40 68.80902 17.40394 8861 ft 332 kts 28°
2026-04-12 11:40 68.82911 17.43428 8426 ft 329 kts 28°
2026-04-12 11:40 68.84895 17.46433 7994 ft 327 kts 28°
2026-04-12 11:40 68.86872 17.49436 7563 ft 324 kts 28°
2026-04-12 11:41 68.88837 17.52426 7108 ft 321 kts 28°
2026-04-12 11:41 68.90774 17.55381 6652 ft 318 kts 28°
2026-04-12 11:41 68.92706 17.58335 6190 ft 315 kts 28°
2026-04-12 11:41 68.94616 17.61256 5730 ft 312 kts 28°
2026-04-12 11:42 68.96490 17.64136 5386 ft 307 kts 29°
2026-04-12 11:42 68.98337 17.66982 5070 ft 300 kts 30°
2026-04-12 11:42 69.00103 17.69702 4967 ft 286 kts 30°
2026-04-12 11:43 69.03396 17.74781 4935 ft 254 kts 30°
2026-04-12 11:43 69.04884 17.77083 4940 ft 241 kts 30°
2026-04-12 11:43 69.06383 17.79161 4949 ft 240 kts 22°
2026-04-12 11:43 69.07906 17.80691 4952 ft 230 kts 19°
2026-04-12 11:44 69.09428 17.82039 4972 ft 229 kts 18°
2026-04-12 11:44 69.10950 17.83449 4976 ft 230 kts 23°
2026-04-12 11:44 69.12300 17.85743 4969 ft 228 kts 50°
2026-04-12 11:44 69.12974 17.89593 4954 ft 225 kts 84°
2026-04-12 11:45 69.12861 17.93961 4698 ft 223 kts 108°
2026-04-12 11:45 69.12376 17.98023 4478 ft 217 kts 110°
2026-04-12 11:45 69.11896 18.01960 4274 ft 211 kts 110°
2026-04-12 11:45 69.11446 18.05740 4094 ft 204 kts 109°
2026-04-12 11:46 69.11002 18.09476 3950 ft 198 kts 110°
2026-04-12 11:46 69.10557 18.13163 3603 ft 204 kts 110°
2026-04-12 11:46 69.10103 18.16925 3260 ft 204 kts 110°
2026-04-12 11:46 69.09658 18.20631 2928 ft 200 kts 109°
2026-04-12 11:47 69.09230 18.24182 2626 ft 186 kts 109°
2026-04-12 11:47 69.08833 18.27455 2354 ft 170 kts 109°
2026-04-12 11:47 69.08468 18.30468 2088 ft 158 kts 109°
2026-04-12 11:47 69.08131 18.33254 1877 ft 142 kts 109°
2026-04-12 11:48 69.07815 18.35833 1643 ft 140 kts 109°
2026-04-12 11:48 69.07499 18.38416 1410 ft 141 kts 109°
2026-04-12 11:48 69.07175 18.40972 1211 ft 141 kts 109°
2026-04-12 11:48 69.06841 18.43571 972 ft 144 kts 107°
2026-04-12 11:49 69.06532 18.46195 780 ft 142 kts 107°
2026-04-12 11:49 69.06216 18.48844 557 ft 144 kts 107°
2026-04-12 11:49 69.05891 18.51483 325 ft 144 kts 108°
2026-04-12 11:49 69.05577 18.54001 219 ft 115 kts 108°
2026-04-12 11:50 69.05407 18.55408 231 ft 44 kts 107°
2026-04-12 11:50 69.05329 18.56045 244 ft 31 kts 109°
2026-04-12 11:50 69.05268 18.56541 253 ft 20 kts 107°
2026-04-12 11:50 69.05273 18.56771 258 ft 8 kts 31°
2026-04-12 11:51 69.05319 18.56824 262 ft 7 kts 20°
2026-04-12 11:51 69.05368 18.56707 263 ft 15 kts 290°
2026-04-12 11:51 69.05412 18.56348 257 ft 21 kts 289°
2026-04-12 11:51 69.05465 18.55923 247 ft 24 kts 289°
2026-04-12 11:52 69.05521 18.55461 236 ft 24 kts 289°
2026-04-12 11:52 69.05576 18.55013 226 ft 24 kts 289°
2026-04-12 11:52 69.05631 18.54565 218 ft 24 kts 288°
2026-04-12 11:52 69.05675 18.54205 220 ft 13 kts 290°
2026-04-12 11:53 69.05737 18.54071 221 ft 11 kts 340°
2026-04-12 11:53 69.05816 18.54012 221 ft 12 kts 340°
2026-04-12 11:53 69.05871 18.53956 222 ft 4 kts 349°
2026-04-12 11:53 69.05889 18.53949 222 ft 0 kts 353°